period_start,C,m1,H,J0,J1,J2,J3,J4,J5,JA,JB,JC,JD,JJ,JK,JN,#
2014-09-07 00:00:20,0.01,1.30,0.00,22.82,26.65,29.18,9.49,39.39,1014.08,2040.91,2960.98,2954.99,3162.97,499.66,495.38,44.42,0000 0000 0000 0000 000000
2014-09-07 00:05:21,-0.01,1.30,0.00,22.91,26.65,29.16,9.51,39.38,1014.17,2040.89,2960.98,2954.98,3162.98,500.10,495.77,44.46,0000 0000 0000 0000 000000
2014-09-07 00:10:22,0.00,1.30,0.00,22.92,26.66,29.14,9.63,39.19,1014.17,2040.87,2960.98,2954.97,3162.97,500.47,496.19,44.51,0000 0000 0000 0000 000000
2014-09-07 00:15:23,0.00,1.30,0.00,22.95,26.67,29.14,9.49,39.18,1014.17,2040.81,2960.89,2954.95,3162.84,499.61,495.49,44.55,0000 0000 0000 0000 000000
2014-09-07 00:20:24,0.01,1.30,0.00,22.98,26.67,29.14,9.59,39.17,1014.19,2040.72,2960.46,2954.77,3162.44,500.06,495.50,44.59,0000 0000 0000 0000 000000
2014-09-07 00:25:25,0.01,1.30,0.00,22.94,26.67,29.16,9.62,39.34,1014.21,2040.61,2960.10,2954.33,3162.14,500.05,495.73,44.63,0000 0000 0000 0000 000000
2014-09-07 00:30:27,-0.01,1.30,0.00,22.95,26.67,29.17,9.56,39.33,1014.30,2040.52,2960.04,2954.12,3162.03,499.76,495.41,44.67,0000 0000 0000 0000 000000
2014-09-07 00:35:28,0.02,1.30,0.00,22.97,26.69,29.18,9.56,39.38,1014.53,2040.59,2960.03,2954.09,3162.03,500.08,495.75,44.71,0000 0000 0000 0000 000000
2014-09-07 00:40:29,-0.01,1.30,0.00,22.98,26.70,29.20,9.60,39.23,1014.62,2040.43,2960.02,2954.02,3162.01,500.22,496.11,44.75,0000 0000 0000 0000 000000
2014-09-07 00:45:30,0.00,1.30,0.00,22.98,26.70,29.20,9.57,39.16,1014.66,2040.46,2960.02,2954.03,3162.01,499.64,495.45,44.80,0000 0000 0000 0000 000000
2014-09-07 00:50:31,-0.01,1.30,0.00,22.99,26.70,29.21,9.60,39.38,1014.66,2040.43,2960.00,2954.01,3162.00,500.25,496.05,44.84,0000 0000 0000 0000 000000
2014-09-07 00:55:32,-0.02,1.30,0.00,22.98,26.70,29.22,9.51,39.13,1014.68,2040.19,2960.00,2954.00,3162.00,500.11,496.06,44.88,0000 0000 0000 0000 000000
2014-09-07 01:00:32,-0.00,1.30,0.00,22.98,26.72,29.23,9.57,39.30,1014.70,2040.10,2959.98,2954.00,3161.99,499.94,495.71,44.92,0000 0000 0000 0000 000000
2014-09-07 01:05:34,0.01,1.30,0.00,22.98,26.72,29.24,9.58,39.12,1014.93,2040.13,2959.96,2954.00,3161.97,500.17,495.90,44.96,0000 0000 0000 0000 000000
2014-09-07 01:10:35,0.00,1.30,0.00,23.00,26.72,29.25,9.48,39.17,1015.05,2040.07,2959.58,2953.97,3161.75,499.43,495.50,45.00,0000 0000 0000 0000 000000
2014-09-07 01:15:36,0.02,1.30,0.00,23.03,26.73,29.25,9.61,39.18,1015.13,2040.08,2959.17,2953.94,3161.32,499.79,495.64,45.05,0000 0000 0000 0000 000000
2014-09-07 01:20:37,0.03,1.30,0.00,23.04,26.74,29.25,9.54,39.21,1015.15,2040.04,2958.91,2953.65,3161.05,500.05,495.97,45.09,0000 0000 0000 0000 000000
2014-09-07 01:25:39,0.02,1.31,0.00,23.03,26.75,29.25,9.62,39.36,1015.15,2040.05,2958.38,2953.02,3160.99,500.46,496.39,45.13,0000 0000 0000 0000 000000
2014-09-07 01:30:40,0.00,1.31,0.00,23.02,26.75,29.27,9.57,39.33,1015.15,2040.01,2958.07,2953.00,3160.96,500.32,496.44,45.17,0000 0000 0000 0000 000000
2014-09-07 01:35:41,0.00,1.31,0.00,22.98,26.75,29.27,9.46,39.24,1015.15,2040.00,2958.01,2953.00,3160.73,499.78,495.69,45.21,0000 0000 0000 0000 000000
2014-09-07 01:40:42,0.01,1.31,0.00,22.98,26.75,29.28,9.55,39.13,1015.16,2040.01,2958.00,2952.97,3160.16,500.03,496.04,45.25,0000 0000 0000 0000 000000
2014-09-07 01:45:43,-0.00,1.31,0.00,23.02,26.76,29.28,9.53,39.13,1015.15,2040.01,2957.99,2952.93,3160.04,499.87,495.78,45.29,0000 0000 0000 0000 000000
2014-09-07 01:50:45,0.02,1.31,0.00,23.02,26.77,29.28,9.56,39.27,1015.17,2040.00,2957.88,2952.62,3160.00,499.98,495.90,45.34,0000 0000 0000 0000 000000
2014-09-07 01:55:46,0.02,1.31,0.00,22.98,26.77,29.29,9.57,39.08,1015.19,2040.00,2957.44,2952.32,3160.00,499.84,495.86,45.38,0000 0000 0000 0000 000000
2014-09-07 02:00:47,-0.01,1.31,0.00,23.00,26.77,29.29,9.57,39.11,1015.47,2040.00,2957.49,2952.26,3160.00,499.96,495.92,45.42,0000 0000 0000 0000 000000
2014-09-07 02:05:48,0.02,1.31,0.00,23.03,26.77,29.29,9.59,39.12,1015.63,2040.00,2957.36,2952.08,3160.00,500.38,496.48,45.46,0000 0000 0000 0000 000000
2014-09-07 02:10:50,0.00,1.31,0.00,23.01,26.77,29.30,9.58,38.96,1015.63,2040.00,2957.03,2952.01,3159.96,500.33,496.45,45.50,0000 0000 0000 0000 000000
2014-09-07 02:15:51,0.00,1.31,0.00,22.99,26.78,29.30,9.55,39.18,1015.64,2040.00,2957.01,2952.01,3159.91,500.22,496.31,45.54,0000 0000 0000 0000 000000
2014-09-07 02:20:52,0.00,1.31,0.00,22.99,26.79,29.31,9.64,39.22,1015.64,2040.00,2956.99,2952.00,3159.76,500.07,496.23,45.59,0000 0000 0000 0000 000000
2014-09-07 02:25:53,0.01,1.31,0.00,22.99,26.79,29.32,9.55,39.36,1015.64,2040.00,2956.99,2952.00,3159.45,499.95,496.15,45.63,0000 0000 0000 0000 000000
2014-09-07 02:30:54,0.00,1.31,0.00,23.00,26.80,29.32,9.56,39.36,1015.63,2040.00,2956.99,2952.00,3159.29,499.91,496.08,45.67,0000 0000 0000 0000 000000
2014-09-07 02:35:55,0.00,1.31,0.00,23.02,26.80,29.31,9.44,39.42,1015.62,2040.00,2956.98,2952.00,3159.13,499.18,495.46,45.71,0000 0000 0000 0000 000000
2014-09-07 02:40:56,-0.00,1.31,0.00,23.05,26.80,29.31,9.54,39.62,1015.63,2040.00,2956.93,2951.98,3159.09,499.92,496.13,45.75,0000 0000 0000 0000 000000
2014-09-07 02:45:57,0.01,1.31,0.00,23.04,26.80,29.29,9.52,39.33,1015.64,2040.00,2956.62,2951.96,3159.01,499.89,496.10,45.79,0000 0000 0000 0000 000000
2014-09-07 02:50:59,0.02,1.31,0.00,23.01,26.80,29.30,9.62,39.37,1015.64,2040.00,2956.13,2951.84,3159.00,500.21,496.58,45.84,0000 0000 0000 0000 000000
2014-09-07 02:56:00,0.01,1.31,0.00,23.05,26.80,29.30,9.55,39.37,1015.64,2040.00,2956.01,2951.54,3159.00,499.98,496.09,45.88,0000 0000 0000 0000 000000
2014-09-07 03:01:01,0.00,1.31,0.00,23.04,26.80,29.30,9.44,39.33,1015.65,2040.00,2956.00,2951.42,3158.99,499.53,495.56,45.92,0000 0000 0000 0000 000000
2014-09-07 03:06:02,0.01,1.31,0.00,22.99,26.80,29.32,9.57,39.48,1015.66,2040.00,2956.00,2951.36,3158.97,500.20,496.43,45.96,0000 0000 0000 0000 000000
2014-09-07 03:11:03,0.00,1.31,0.00,23.01,26.80,29.31,9.58,39.59,1015.74,2040.00,2955.99,2951.06,3158.94,500.10,496.44,46.00,0000 0000 0000 0000 000000
2014-09-07 03:16:04,0.01,1.31,0.00,22.98,26.80,29.32,9.57,39.71,1015.93,2040.00,2955.97,2951.02,3158.71,500.11,496.58,46.04,0000 0000 0000 0000 000000
2014-09-07 03:21:05,0.01,1.31,0.00,22.99,26.80,29.30,9.53,39.53,1016.05,2040.00,2955.95,2951.00,3158.36,500.04,496.48,46.08,0000 0000 0000 0000 000000
2014-09-07 03:26:07,0.01,1.31,0.00,23.03,26.80,29.30,9.56,39.54,1016.12,2040.00,2955.61,2951.00,3158.16,499.48,495.87,46.13,0000 0000 0000 0000 000000
2014-09-07 03:31:08,0.01,1.31,0.00,23.02,26.80,29.30,9.56,39.48,1016.13,2040.00,2955.11,2951.00,3158.03,499.70,496.19,46.17,0000 0000 0000 0000 000000
2014-09-07 03:36:09,0.00,1.31,0.00,22.98,26.80,29.31,9.57,39.33,1016.13,2040.00,2955.05,2950.99,3158.03,500.23,496.68,46.21,0000 0000 0000 0000 000000
2014-09-07 03:41:10,0.00,1.31,0.00,23.00,26.80,29.30,9.44,39.24,1016.13,2040.00,2955.02,2950.98,3158.02,499.79,496.39,46.25,0000 0000 0000 0000 000000
2014-09-07 03:46:12,0.00,1.31,0.00,22.95,26.80,29.31,9.59,39.33,1016.13,2040.00,2955.00,2950.99,3158.00,500.00,496.50,46.29,0000 0000 0000 0000 000000
2014-09-07 03:51:13,0.00,1.31,0.00,22.99,26.80,29.31,9.50,39.42,1016.13,2040.00,2955.00,2950.99,3158.00,499.93,496.38,46.33,0000 0000 0000 0000 000000
2014-09-07 03:56:14,0.00,1.31,0.00,23.00,26.80,29.30,9.60,39.27,1016.13,2040.00,2955.00,2950.99,3158.00,500.20,496.63,46.38,0000 0000 0000 0000 000000
2014-09-07 04:01:15,0.00,1.31,0.00,23.02,26.80,29.29,9.48,39.34,1016.14,2040.00,2955.00,2950.98,3158.00,500.11,496.60,46.42,0000 0000 0000 0000 000000
2014-09-07 04:06:15,0.00,1.31,0.00,22.96,26.80,29.30,9.54,39.30,1016.13,2040.01,2955.00,2950.97,3158.00,499.68,496.19,46.46,0000 0000 0000 0000 000000
2014-09-07 04:11:17,0.00,1.32,0.00,22.97,26.80,29.31,9.59,39.18,1016.13,2040.00,2954.97,2950.90,3157.99,500.35,496.60,46.50,0000 0000 0000 0000 000000
2014-09-07 04:16:18,0.01,1.32,0.00,22.96,26.80,29.30,9.59,39.12,1016.13,2040.00,2954.95,2950.65,3157.97,500.35,496.78,46.54,0000 0000 0000 0000 000000
2014-09-07 04:21:19,0.01,1.32,0.00,23.01,26.80,29.29,9.49,39.23,1016.13,2040.00,2954.90,2950.33,3157.96,499.63,496.17,46.58,0000 0000 0000 0000 000000
2014-09-07 04:26:19,0.04,1.32,0.00,23.02,26.80,29.29,9.49,39.23,1016.13,2040.00,2954.14,2950.05,3157.31,499.64,496.08,46.63,0000 0000 0000 0000 000000
2014-09-07 04:31:21,-0.00,1.32,0.00,23.02,26.80,29.31,9.53,39.24,1016.13,2040.00,2954.01,2950.01,3157.08,500.06,496.43,46.67,0000 0000 0000 0000 000000
2014-09-07 04:36:21,0.00,1.32,0.00,23.02,26.80,29.30,9.56,39.31,1016.13,2040.00,2954.00,2950.00,3157.03,499.79,496.20,46.71,0000 0000 0000 0000 000000
2014-09-07 04:41:22,0.00,1.32,0.00,23.05,26.80,29.31,9.58,39.40,1016.13,2040.00,2954.00,2950.00,3157.03,499.94,496.23,46.75,0000 0000 0000 0000 000000
2014-09-07 04:46:24,0.00,1.32,0.00,23.07,26.80,29.34,9.56,39.20,1016.12,2040.00,2953.99,2950.00,3157.01,499.95,496.31,46.79,0000 0000 0000 0000 000000
2014-09-07 04:51:25,0.00,1.32,0.00,22.98,26.79,29.39,9.62,39.23,1016.13,2040.00,2953.97,2950.00,3157.00,500.46,496.91,46.83,0000 0000 0000 0000 000000
2014-09-07 04:56:26,0.00,1.32,0.00,22.89,26.78,29.46,9.54,39.42,1016.12,2040.00,2953.93,2950.00,3157.00,500.04,496.84,46.88,0000 0000 0000 0000 000000
2014-09-07 05:01:27,0.00,1.32,0.00,22.86,26.77,29.45,9.59,39.46,1016.13,2040.00,2953.93,2949.97,3157.00,500.20,496.84,46.92,0000 0000 0000 0000 000000
2014-09-07 05:06:28,0.00,1.32,0.00,22.92,26.77,29.46,9.52,39.44,1016.13,2040.00,2953.88,2949.96,3156.99,499.84,496.47,46.96,0000 0000 0000 0000 000000
2014-09-07 05:11:29,0.00,1.32,0.00,23.00,26.79,29.39,9.50,39.24,1016.13,2040.00,2953.75,2949.96,3156.98,499.72,496.30,47.00,0000 0000 0000 0000 000000
2014-09-07 05:16:31,0.02,1.32,0.00,23.04,26.80,29.30,9.67,39.11,1016.13,2040.00,2953.21,2949.78,3156.93,500.29,496.50,47.04,0000 0000 0000 0000 000000
2014-09-07 05:21:31,0.02,1.32,0.00,23.08,26.80,29.27,9.53,39.27,1016.14,2040.00,2953.03,2949.36,3156.69,500.00,496.10,47.08,0000 0000 0000 0000 000000
2014-09-07 05:26:32,0.02,1.32,0.00,23.01,26.80,29.30,9.45,39.17,1016.33,2040.00,2953.00,2949.08,3156.24,499.72,496.34,47.12,0000 0000 0000 0000 000000
2014-09-07 05:31:34,0.00,1.32,0.00,22.86,26.80,29.37,9.56,39.37,1016.56,2040.00,2952.99,2949.03,3156.06,500.36,497.50,47.17,0000 0000 0000 0000 000000
2014-09-07 05:36:35,0.00,1.32,0.00,22.81,26.79,29.52,9.62,39.67,1016.60,2040.00,2952.89,2949.01,3156.02,499.88,496.91,47.21,0000 0000 0000 0000 000000
2014-09-07 05:41:35,-0.00,1.32,0.00,22.80,26.78,29.49,9.62,39.23,1016.51,2040.00,2952.83,2949.00,3156.00,499.81,496.79,47.25,0000 0000 0000 0000 000000
2014-09-07 05:46:37,0.01,1.32,0.00,22.83,26.77,29.50,9.52,38.98,1016.50,2040.00,2952.16,2949.00,3156.01,499.99,496.89,47.29,0000 0000 0000 0000 000000
2014-09-07 05:51:38,0.00,1.32,0.00,22.91,26.78,29.45,9.65,39.14,1016.52,2040.00,2952.02,2948.99,3156.00,500.34,497.17,47.33,0000 0000 0000 0000 000000
2014-09-07 05:56:39,-0.00,1.32,0.00,23.03,26.78,29.35,9.63,39.13,1016.44,2040.00,2952.12,2948.99,3155.99,500.13,496.92,47.37,0000 0000 0000 0000 000000
2014-09-07 06:01:40,0.00,1.32,0.00,22.95,26.78,29.26,9.51,39.06,1016.53,2040.00,2952.00,2948.96,3155.92,499.99,496.60,47.42,0000 0000 0000 0000 000000
2014-09-07 06:06:41,0.02,1.32,0.00,22.73,26.77,29.30,9.53,39.17,1016.59,2040.00,2951.94,2948.59,3155.36,499.95,497.20,47.46,0000 0000 0000 0000 000000
2014-09-07 06:11:42,0.03,1.32,0.00,22.79,26.77,29.43,9.59,39.08,1016.62,2040.00,2951.51,2948.10,3155.04,499.90,497.04,47.50,0000 0000 0000 0000 000000
2014-09-07 06:16:43,0.00,1.33,0.00,22.80,26.77,29.42,9.57,38.94,1016.62,2040.00,2951.13,2948.04,3155.00,500.17,497.31,47.54,0000 0000 0000 0000 000000
2014-09-07 06:21:44,0.00,1.33,0.00,22.83,26.77,29.46,9.62,39.13,1016.62,2040.00,2951.02,2948.02,3155.00,499.60,496.64,47.58,0000 0000 0000 0000 000000
2014-09-07 06:26:45,0.00,1.33,0.00,22.92,26.77,29.41,9.57,39.25,1016.62,2040.00,2951.01,2948.00,3154.99,499.73,496.52,47.62,0000 0000 0000 0000 000000
2014-09-07 06:31:46,0.00,1.33,0.00,22.94,26.77,29.27,9.49,39.10,1016.63,2040.00,2951.00,2948.00,3154.96,499.84,496.73,47.66,0000 0000 0000 0000 000000
2014-09-07 06:36:47,0.01,1.33,0.00,22.81,26.75,29.28,9.60,39.11,1016.69,2040.00,2950.99,2947.99,3154.82,499.89,496.94,47.71,0000 0000 0000 0000 000000
2014-09-07 06:41:48,0.01,1.33,0.00,22.87,26.75,29.39,9.55,39.29,1016.84,2039.99,2950.88,2947.98,3154.39,499.87,497.01,47.75,0000 0000 0000 0000 000000
2014-09-07 06:46:49,0.01,1.33,0.00,22.84,26.75,29.37,9.56,39.27,1016.95,2039.99,2950.37,2947.93,3154.06,499.79,496.81,47.79,0000 0000 0000 0000 000000
2014-09-07 06:51:50,0.02,1.33,0.00,22.87,26.75,29.42,9.59,39.20,1017.03,2039.99,2950.14,2947.71,3154.03,500.08,497.30,47.83,0000 0000 0000 0000 000000
2014-09-07 06:56:51,0.00,1.33,0.00,22.93,26.75,29.38,9.59,39.32,1017.09,2039.98,2950.14,2947.41,3154.01,499.89,497.04,47.87,0000 0000 0000 0000 000000
2014-09-07 07:01:53,0.01,1.33,0.00,22.96,26.74,29.31,9.59,39.21,1017.10,2039.99,2950.03,2947.14,3154.00,500.28,497.15,47.91,0000 0000 0000 0000 000000
2014-09-07 07:06:54,0.00,1.33,0.00,23.01,26.74,29.23,9.50,39.27,1017.12,2039.99,2949.93,2947.01,3153.98,499.94,496.86,47.96,0000 0000 0000 0000 000000
2014-09-07 07:11:55,0.01,1.33,0.00,22.90,26.72,29.24,9.53,39.13,1017.12,2039.99,2949.37,2947.00,3153.96,499.75,496.82,48.00,0000 0000 0000 0000 000000
2014-09-07 07:16:56,0.01,1.33,0.00,22.86,26.72,29.33,9.63,39.14,1017.14,2039.99,2949.04,2946.99,3153.70,500.10,497.41,48.04,0000 0000 0000 0000 000000
2014-09-07 07:21:58,0.00,1.33,0.00,22.81,26.72,29.33,9.53,39.17,1017.16,2039.99,2949.03,2946.99,3153.40,499.74,496.82,48.08,0000 0000 0000 0000 000000
2014-09-07 07:26:59,0.00,1.33,0.00,22.82,26.72,29.35,9.57,39.29,1017.21,2039.99,2949.02,2946.98,3153.18,499.86,497.16,48.12,0000 0000 0000 0000 000000
2014-09-07 07:32:00,0.00,1.33,0.00,22.85,26.72,29.36,9.54,39.28,1017.36,2039.99,2949.01,2946.97,3153.06,499.92,497.19,48.16,0000 0000 0000 0000 000000
2014-09-07 07:37:01,0.00,1.33,0.00,22.93,26.72,29.30,9.60,39.41,1017.51,2039.99,2949.00,2946.87,3153.01,500.35,497.42,48.21,0000 0000 0000 0000 000000
2014-09-07 07:42:02,0.02,1.33,0.00,23.03,26.72,29.22,9.55,39.24,1017.57,2039.99,2948.94,2946.44,3153.00,500.03,497.18,48.25,0000 0000 0000 0000 000000
2014-09-07 07:47:03,0.02,1.33,0.00,22.91,26.72,29.22,9.55,39.08,1017.59,2039.99,2948.36,2946.05,3152.99,500.18,497.43,48.29,0000 0000 0000 0000 000000
2014-09-07 07:52:04,0.01,1.33,0.00,22.83,26.70,29.30,9.52,39.19,1017.59,2039.99,2948.02,2946.00,3152.72,499.84,497.12,48.33,0000 0000 0000 0000 000000
2014-09-07 07:57:05,0.01,1.33,0.00,22.88,26.70,29.40,9.63,39.33,1017.59,2039.99,2947.99,2945.99,3152.14,499.89,497.30,48.37,0000 0000 0000 0000 000000
2014-09-07 08:02:06,0.01,1.33,0.00,22.79,26.70,29.31,9.58,39.31,1017.61,2039.99,2947.81,2945.97,3152.02,499.98,497.56,48.41,0000 0000 0000 0000 000000
2014-09-07 08:07:08,0.02,1.34,0.00,22.85,26.70,29.30,9.55,39.41,1017.66,2039.99,2947.33,2945.71,3152.00,500.11,497.46,48.45,0000 0000 0000 0000 000000
2014-09-07 08:12:09,0.02,1.34,0.00,22.98,26.70,29.20,9.56,39.34,1017.76,2039.99,2947.04,2945.17,3151.98,499.94,497.28,48.50,0000 0000 0000 0000 000000
2014-09-07 08:17:09,0.00,1.34,0.00,22.98,26.70,29.14,9.57,39.24,1017.78,2039.99,2947.00,2945.02,3151.81,500.22,497.67,48.54,0000 0000 0000 0000 000000
2014-09-07 08:22:11,0.03,1.34,0.00,22.84,26.70,29.16,9.55,39.29,1017.95,2039.99,2946.60,2944.98,3151.09,499.67,497.52,48.58,0000 0000 0000 0000 000000
2014-09-07 08:27:12,0.03,1.34,0.00,22.84,26.70,29.19,9.55,39.24,1018.04,2039.99,2946.01,2944.61,3150.99,499.82,497.58,48.62,0000 0000 0000 0000 000000
2014-09-07 08:32:13,0.02,1.34,0.00,22.82,26.70,29.20,9.52,39.22,1018.08,2039.99,2945.76,2944.03,3150.71,500.00,497.67,48.66,0000 0000 0000 0000 000000
2014-09-07 08:37:14,0.02,1.34,0.00,22.85,26.70,29.19,9.53,39.16,1018.08,2039.99,2945.08,2944.00,3150.06,500.00,497.59,48.70,0000 0000 0000 0000 000000
2014-09-07 08:42:15,0.00,1.34,0.00,22.92,26.70,29.17,9.59,39.01,1018.08,2039.99,2945.00,2943.96,3150.00,499.73,497.60,48.75,0000 0000 0000 0000 000000
2014-09-07 08:47:17,0.03,1.34,0.00,23.01,26.70,29.18,9.54,39.13,1018.08,2039.99,2944.72,2943.48,3149.95,500.13,497.39,48.79,0000 0000 0000 0000 000000
2014-09-07 08:52:18,0.03,1.34,0.00,22.91,26.70,29.20,9.60,39.23,1018.09,2039.99,2944.04,2943.02,3149.35,500.15,497.79,48.83,0000 0000 0000 0000 000000
2014-09-07 08:57:20,0.00,1.34,0.00,22.86,26.70,29.28,9.54,39.17,1018.11,2039.99,2944.00,2942.99,3149.01,500.11,497.93,48.87,0000 0000 0000 0000 000000
2014-09-07 09:02:21,0.02,1.35,0.00,22.86,26.70,29.31,9.61,39.38,1018.12,2039.99,2943.71,2942.83,3148.99,500.27,497.68,48.91,0000 0000 0000 0000 000000
2014-09-07 09:07:22,0.04,1.35,0.00,22.82,26.70,29.26,9.62,39.31,1018.21,2039.99,2943.12,2942.18,3148.80,499.82,497.59,48.95,0000 0000 0000 0000 000000
2014-09-07 09:12:23,0.01,1.35,0.00,22.91,26.70,29.25,9.55,39.27,1018.23,2039.99,2943.00,2942.00,3148.13,499.89,497.38,49.00,0000 0000 0000 0000 000000
2014-09-07 09:17:24,0.02,1.35,0.00,23.00,26.70,29.20,9.51,39.07,1018.21,2039.99,2942.52,2941.85,3147.90,499.78,497.28,49.04,0000 0000 0000 0000 000000
2014-09-07 09:22:25,0.07,1.35,0.00,22.97,26.70,29.19,9.47,39.23,1018.17,2039.99,2941.12,2941.04,3147.06,499.70,496.91,49.08,0000 0000 0000 0000 000000
2014-09-07 09:27:26,0.01,1.35,0.00,22.85,26.70,29.24,9.60,39.18,1018.19,2039.99,2940.98,2940.81,3146.98,499.82,497.63,49.12,0000 0000 0000 0000 000000
2014-09-07 09:32:28,0.05,1.35,0.00,22.85,26.70,29.33,9.58,39.33,1018.21,2039.99,2940.40,2940.15,3146.54,499.89,497.72,49.16,0000 0000 0000 0000 000000
2014-09-07 09:37:29,0.01,1.36,0.00,22.81,26.69,29.31,9.69,39.30,1018.25,2039.98,2940.01,2940.00,3146.03,500.46,498.05,49.20,0000 0000 0000 0000 000000
2014-09-07 09:42:30,0.00,1.36,0.00,22.81,26.69,29.33,9.62,39.28,1018.37,2039.99,2939.99,2939.98,3146.00,500.22,498.17,49.25,0000 0000 0000 0000 000000
2014-09-07 09:47:31,0.02,1.36,0.00,22.86,26.69,29.31,9.65,39.24,1018.42,2039.99,2939.68,2939.66,3145.93,500.32,498.14,49.29,0000 0000 0000 0000 000000
2014-09-07 09:52:32,0.04,1.36,0.00,22.94,26.69,29.24,9.60,39.32,1018.47,2039.99,2939.06,2939.07,3145.39,500.08,497.67,49.33,0000 0000 0000 0000 000000
2014-09-07 09:57:33,0.00,1.36,0.00,22.96,26.69,29.19,9.60,39.17,1018.52,2039.99,2939.00,2939.00,3145.04,500.13,497.76,49.37,0000 0000 0000 0000 000000
2014-09-07 10:02:34,0.01,1.36,0.00,22.91,26.68,29.22,9.65,39.41,1018.55,2039.99,2938.54,2938.97,3145.00,500.29,497.96,49.41,0000 0000 0000 0000 000000
2014-09-07 10:07:35,0.01,1.36,0.00,22.87,26.67,29.27,9.61,39.20,1018.57,2039.99,2938.02,2938.72,3144.95,500.11,498.00,49.45,0000 0000 0000 0000 000000
2014-09-07 10:12:37,0.02,1.36,0.00,22.80,26.67,29.26,9.58,39.10,1018.57,2039.99,2938.00,2938.22,3144.67,499.55,497.40,49.49,0000 0000 0000 0000 000000
2014-09-07 10:17:38,0.01,1.36,0.00,22.82,26.67,29.32,9.52,39.26,1018.57,2039.99,2937.99,2938.02,3144.10,499.71,497.69,49.54,0000 0000 0000 0000 000000
2014-09-07 10:22:39,0.01,1.36,0.00,22.88,26.67,29.28,9.61,39.41,1018.56,2039.99,2937.76,2938.00,3144.01,500.05,498.18,49.58,0000 0000 0000 0000 000000
2014-09-07 10:27:40,0.01,1.36,0.00,22.90,26.67,29.23,9.62,39.44,1018.56,2039.99,2937.09,2937.94,3144.00,499.90,497.77,49.62,0000 0000 0000 0000 000000
2014-09-07 10:32:41,0.02,1.36,0.00,22.93,26.67,29.21,9.61,39.36,1018.57,2039.99,2937.00,2937.53,3143.88,499.93,497.62,49.66,0000 0000 0000 0000 000000
2014-09-07 10:37:43,0.03,1.37,0.00,22.96,26.69,29.18,9.67,39.33,1018.57,2039.99,2936.97,2937.06,3143.21,500.30,498.00,49.70,0000 0000 0000 0000 000000
2014-09-07 10:42:44,0.02,1.37,0.00,22.96,26.69,29.18,9.70,39.34,1018.57,2040.00,2936.28,2937.00,3143.01,500.30,498.06,49.74,0000 0000 0000 0000 000000
2014-09-07 10:47:45,0.00,1.37,0.00,22.94,26.70,29.20,9.68,39.48,1018.58,2040.00,2936.00,2936.97,3142.98,500.35,497.98,49.79,0000 0000 0000 0000 000000
2014-09-07 10:52:46,0.02,1.37,0.00,22.92,26.70,29.21,9.58,39.31,1018.59,2040.00,2935.98,2936.68,3142.85,500.22,498.13,49.83,0000 0000 0000 0000 000000
2014-09-07 10:57:47,0.04,1.37,0.00,22.91,26.70,29.21,8.32,34.35,1018.61,2040.07,2955.04,2949.36,3158.19,441.54,439.57,0.00,0000 0000 0000 0000 000002
2014-09-07 11:02:49,0.04,0.00,0.00,22.95,26.70,29.20,9.62,40.25,1018.64,2041.40,3510.66,3333.22,3622.84,498.85,496.80,0.01,0000 0000 0000 0000 000000
2014-09-07 11:07:50,0.04,0.00,0.00,23.00,26.70,29.21,9.53,40.22,1018.80,2041.16,3508.06,3332.68,3622.21,499.85,497.76,0.05,0000 0000 0000 0000 000000
2014-09-07 11:12:51,0.03,0.00,0.00,23.04,26.70,29.22,9.58,40.14,1019.02,2041.13,3507.10,3332.16,3621.63,500.46,498.18,0.09,0000 0000 0000 0000 000000
2014-09-07 11:17:51,0.03,0.00,0.00,22.93,26.70,29.25,9.61,40.11,1019.06,2041.10,3506.50,3332.00,3621.02,500.29,498.30,0.13,0000 0000 0000 0000 000000
2014-09-07 11:22:53,0.02,0.00,0.00,22.90,26.70,29.26,9.58,40.13,1019.06,2041.19,3506.01,3332.00,3620.89,500.09,498.15,0.18,0000 0000 0000 0000 000000
2014-09-07 11:27:54,0.03,0.00,0.00,22.92,26.70,29.26,9.51,39.97,1019.06,2041.30,3505.72,3332.00,3620.21,499.38,497.33,0.22,0000 0000 0000 0000 000000
2014-09-07 11:32:54,0.01,0.00,0.00,22.93,26.70,29.25,9.58,39.99,1019.06,2041.31,3505.04,3331.97,3620.00,499.62,497.78,0.26,0000 0000 0000 0000 000000
2014-09-07 11:37:56,0.02,0.00,0.00,22.95,26.71,29.25,9.58,40.10,1019.06,2041.27,3504.92,3331.57,3619.68,499.91,498.01,0.30,0000 0000 0000 0000 000000
2014-09-07 11:42:57,0.01,0.00,0.00,22.94,26.72,29.24,9.66,39.98,1019.06,2041.12,3504.17,3331.09,3619.06,500.30,498.36,0.34,0000 0000 0000 0000 000000
2014-09-07 11:47:58,0.01,0.00,0.00,22.96,26.72,29.23,9.61,39.98,1019.06,2041.14,3504.00,3331.01,3618.99,500.07,498.11,0.38,0000 0000 0000 0000 000000
2014-09-07 11:52:59,0.01,0.00,0.00,22.94,26.72,29.25,9.56,39.88,1019.07,2041.14,3503.79,3331.00,3618.81,499.79,497.95,0.43,0000 0000 0000 0000 000000
2014-09-07 11:58:01,0.02,0.01,0.00,22.95,26.72,29.25,9.64,39.88,1019.08,2041.16,3503.09,3331.00,3618.13,500.23,498.15,0.47,0000 0000 0000 0000 000000
2014-09-07 12:03:02,0.01,0.01,0.00,22.95,26.72,29.25,9.56,39.61,1019.16,2041.21,3503.00,3330.99,3618.00,500.38,498.31,0.51,0000 0000 0000 0000 000000
2014-09-07 12:08:03,0.01,0.01,0.00,22.97,26.72,29.26,9.66,39.84,1019.36,2041.08,3502.59,3330.83,3617.90,500.09,498.06,0.55,0000 0000 0000 0000 000000
2014-09-07 12:13:04,0.03,0.01,0.00,22.94,26.72,29.27,9.59,39.73,1019.51,2041.07,3502.02,3330.27,3617.24,500.43,498.58,0.59,0000 0000 0000 0000 000000
2014-09-07 12:18:05,0.01,0.01,0.00,22.92,26.73,29.28,9.53,39.75,1019.54,2041.15,3502.00,3330.10,3617.04,499.89,498.10,0.64,0000 0000 0000 0000 000000
2014-09-07 12:23:06,0.01,0.01,0.00,22.92,26.74,29.27,9.59,39.81,1019.55,2041.09,3501.63,3330.02,3617.00,499.81,498.18,0.68,0000 0000 0000 0000 000000
2014-09-07 12:28:08,0.01,0.01,0.00,22.91,26.74,29.28,9.60,39.75,1019.55,2041.09,3501.02,3330.00,3616.88,500.51,498.94,0.72,0000 0000 0000 0000 000000
2014-09-07 12:33:08,0.01,0.01,0.00,22.92,26.75,29.27,9.70,39.77,1019.55,2041.07,3500.98,3329.99,3616.16,500.11,498.39,0.76,0000 0000 0000 0000 000000
2014-09-07 12:38:09,0.00,0.01,0.00,22.93,26.75,29.28,9.63,39.61,1019.55,2041.06,3500.62,3329.96,3616.00,500.41,498.51,0.80,0000 0000 0000 0000 000000
2014-09-07 12:43:10,0.01,0.01,0.00,22.93,26.75,29.28,9.59,39.55,1019.55,2041.06,3500.04,3329.71,3615.98,500.50,498.56,0.84,0000 0000 0000 0000 000000
2014-09-07 12:48:11,0.02,0.01,0.00,22.94,26.75,29.29,9.63,39.69,1019.55,2041.05,3499.98,3329.15,3615.46,500.41,498.62,0.89,0000 0000 0000 0000 000000
2014-09-07 12:53:13,0.02,0.01,0.00,22.92,26.75,29.28,9.68,39.73,1019.55,2041.03,3499.46,3329.03,3615.05,500.66,498.89,0.93,0000 0000 0000 0000 000000
2014-09-07 12:58:13,0.00,0.01,0.00,22.92,26.76,29.30,9.54,39.66,1019.55,2041.03,3499.01,3329.00,3614.99,499.73,498.10,0.97,0000 0000 0000 0000 000000